Вернуться в каталог

ATLAS 5 CENTAUR DEB

АктивенHEO
NORAD 44654·DEBRIS·🇺🇸 United States

Запущен Oct 17, 2018 с Cape Canaveral Space Force Station

Loading…

Ближайшие Пролёты (ближайшие 24 часа)

TLE

СвежийSource: Space-Track

Эпоха: Sep 11, 2026, 12:00 UTC

1 44654U 18079Q   26254.50020338 -.00000190  00000-0  00000-0 0  9999
2 44654  13.6685  27.2671 4683347 326.0281  11.2431  1.80723610 46859

Отслеживайте ATLAS 5 CENTAUR DEB в реальном времени с AllMySat

Download on the App Store